Flag for U.S.A. Weather past 2 weeks in San Diego, California, U.S.A.

Now
60 °F

Low clouds.


Feels Like: 60 °F
Forecast: 60 / 72 °F
Wind: 6 mph from Northwest

Location: San Diego - North Island

Current Time: May 29, 2015 at 8:03:36 AM

Latest Report: May 29, 2015 at 6:52 AM


Visibility: 8 mi

Pressure: 29.94 "Hg

Humidity: 90%

Dew point: 57 °F

Location of San DiegoLocation

Historic Weather in San Diego — Graph

°F

San Diego temperature yesterday

Maximum temperature yesterday: 66 °F (at 1:52 PM)
Minimum temperature yesterday: 61 °F (at 3:52 AM)
Average temperature yesterday: 63 °F

Past Weeks' High & Low Weather Summary

 TemperatureHumidityPressure
High67 °F (May 24, 4:52 PM)93% (May 29, 5:52 AM)30.10 "Hg (May 29, 5:52 AM)
Low55 °F (May 15, 7:52 AM)56% (May 19, 1:52 PM)29.82 "Hg (May 15, 2:52 PM)
Average62 °F73%29.99 "Hg
* Reported May 14 6:52 AM — May 29 6:52 AM, San Diego, Weather by CustomWeather, © 2015

Note: Actual official high and low records may vary slightly from our data, if they occured in-between our weather recording intervals... More about our weather records

Advertising

San Diego weather history for previous 24 hours

 ConditionsComfort  
Time TempWeatherWind HumidityBarometerVisibility
6:52 AM
Fri, May 29
60 °FLow clouds.6 mph90%29.94 "Hg8 mi
5:52 AM59 °FLow clouds.3 mph93%29.93 "Hg7 mi
4:52 AM59 °FLow clouds.No wind90%29.93 "Hg8 mi
3:52 AM60 °FLow clouds.No wind86%29.93 "Hg10 mi
2:52 AM60 °FOvercast.No wind86%29.94 "Hg10 mi
1:52 AM61 °FOvercast.No wind83%29.94 "Hg10 mi
12:52 AM61 °FOvercast.3 mph83%29.96 "Hg9 mi
11:52 PM
Thu, May 28
61 °FOvercast.No wind83%29.96 "Hg10 mi
10:52 PM61 °FPassing clouds.No wind83%29.96 "Hg10 mi
9:52 PM61 °FPassing clouds.3 mph81%29.96 "Hg10 mi
8:52 PM61 °FPassing clouds.3 mph81%29.94 "Hg10 mi
7:52 PM61 °FPartly sunny.7 mph81%29.94 "Hg10 mi
6:52 PM63 °FScattered clouds.9 mph75%29.93 "Hg10 mi
5:52 PM64 °FPassing clouds.9 mph73%29.91 "Hg10 mi
4:52 PM65 °FPassing clouds.13 mph70%29.92 "Hg10 mi
3:52 PM66 °FPassing clouds.14 mph68%29.93 "Hg10 mi
2:52 PM66 °FPassing clouds.13 mph70%29.94 "Hg10 mi
1:52 PM66 °FScattered clouds.12 mph70%29.96 "Hg10 mi
12:52 PM65 °FOvercast.12 mph73%29.98 "Hg10 mi
11:52 AM64 °FOvercast.12 mph78%30.00 "Hg10 mi
10:52 AM63 °FOvercast.9 mph78%30.01 "Hg10 mi
9:52 AM63 °FOvercast.8 mph81%29.99 "Hg10 mi
8:52 AM63 °FOvercast.7 mph81%29.99 "Hg10 mi
Weather by CustomWeather, © 2015

See weather overviewHow to use our weather pages